Date String (YYYY-MM-DD hh:mm:ss) UTC,Instrument flags,absolute air pressure of the measurement (hPa),sample flow rate (lpm),inlet stack bypass flow (lpm),air temperature of the measurement (°C),ambient temperature measured by the external sensor (°C),aerosol sample conditioner tube jacket temperature (°C),OPC LED temperature (°C),internal box temperature (°C),relative humidity of the measurement (%),span deviation,mass concentration of particles derived from Lorenz-Mie calculation of OPC scattering (μg/m³),mass concentration of particles derived from Lorenz-Mie calculation of OPC scattering (μg/m³),mass concentration of particles derived from Lorenz-Mie calculation of OPC scattering (μg/m³)
DateTimeUTC,F1_M11,P_M11,Q1_M11,Q2_M11,T1_M11,T2_M11,T3_M11,T4_M11,T5_M11,U1_M11,ZSPAN_M11,X0_M11,X2_M11,X1_M11
2023-12-30 15:00:00,SystemResetWarning,0830.3,5.00,000.00,020.0,019.0,000.0,028.4,021.4,9.5,0000.0,0006.26,0003.68,0003.37
2023-12-30 15:01:00,SystemResetWarning,0830.3,4.99,000.00,020.0,019.0,000.0,028.4,021.4,9.5,0000.0,0005.62,0003.60,0003.32
2023-12-30 15:02:00,SystemResetWarning,0830.3,4.99,000.00,020.0,019.0,000.0,028.4,021.4,9.4,0000.0,0005.30,0003.57,0003.28
2023-12-30 15:03:00,SystemResetWarning,0830.3,4.99,000.00,020.0,019.0,000.0,028.3,021.4,9.4,0000.0,0005.00,0003.54,0003.26
2023-12-30 15:04:00,SystemResetWarning,0830.3,5.00,000.00,020.0,019.0,000.0,028.4,021.4,9.4,0000.0,0004.89,0003.50,0003.26
2023-12-30 15:05:00,SystemResetWarning,0830.3,5.01,000.00,020.0,019.0,000.0,028.4,021.4,9.4,0000.0,0004.90,0003.50,0003.26
2023-12-30 15:06:00,SystemResetWarning,0830.3,5.01,000.00,020.0,019.0,000.0,028.4,021.4,9.4,0000.0,0004.87,0003.49,0003.25
2023-12-30 15:07:00,SystemResetWarning,0830.3,5.00,000.00,020.0,019.1,000.0,028.4,021.5,9.4,0000.0,0004.76,0003.46,0003.23
2023-12-30 15:08:00,SystemResetWarning,0830.3,5.00,000.00,020.0,019.1,000.0,028.4,021.5,9.2,0000.0,0004.63,0003.43,0003.20
2023-12-30 15:09:00,SystemResetWarning,0830.3,4.99,000.00,020.0,019.1,000.0,028.4,021.5,9.1,0000.0,0004.63,0003.42,0003.18
2023-12-30 15:10:00,SystemResetWarning,0830.4,5.00,000.00,020.0,019.1,000.0,028.4,021.5,9.0,0000.0,0004.64,0003.39,0003.15
2023-12-30 15:11:00,SystemResetWarning,0830.4,4.99,000.00,020.1,019.2,000.0,028.4,021.5,8.9,0000.0,0004.56,0003.33,0003.08
2023-12-30 15:12:00,SystemResetWarning,0830.3,5.00,000.00,020.1,019.2,000.0,028.4,021.5,9.0,0000.0,0004.49,0003.28,0003.00
2023-12-30 15:13:00,SystemResetWarning,0830.4,5.01,000.00,020.1,019.2,000.0,028.4,021.5,9.0,0000.0,0004.10,0003.19,0002.89
2023-12-30 15:14:00,SystemResetWarning,0830.4,5.01,000.00,020.1,019.2,000.0,028.4,021.5,9.0,0000.0,0003.84,0003.12,0002.77
2023-12-30 15:15:00,SystemResetWarning,0830.4,5.01,000.00,020.1,019.2,000.0,028.4,021.5,9.0,0000.0,0003.70,0003.03,0002.68
2023-12-30 15:16:00,SystemResetWarning,0830.4,5.00,000.00,020.1,019.2,000.0,028.4,021.5,9.0,0000.0,0003.55,0002.92,0002.58
2023-12-30 15:17:00,SystemResetWarning,0830.4,5.00,000.00,020.1,019.3,000.0,028.4,021.5,9.1,0000.0,0003.63,0002.85,0002.49
2023-12-30 15:18:00,SystemResetWarning,0830.3,4.99,000.00,020.1,019.3,000.0,028.4,021.5,9.1,0000.0,0003.36,0002.63,0002.30
2023-12-30 15:19:00,SystemResetWarning,0830.4,4.99,000.00,020.1,019.3,000.0,028.4,021.6,9.1,0000.0,0003.12,0002.40,0002.09
2023-12-30 15:20:00,SystemResetWarning,0830.4,5.01,000.00,020.1,019.3,000.0,028.4,021.6,9.1,0000.0,0002.83,0002.15,0001.87
2023-12-30 15:21:00,SystemResetWarning,0830.4,5.01,000.00,020.1,019.4,000.0,028.4,021.6,9.2,0000.0,0002.52,0001.91,0001.65
2023-12-30 15:22:00,SystemResetWarning,0830.4,4.99,000.00,020.2,019.4,000.0,028.4,021.6,9.3,0000.0,0002.33,0001.74,0001.50
2023-12-30 15:23:00,SystemResetWarning,0830.4,5.00,000.00,020.2,019.4,000.0,028.4,021.6,9.4,0000.0,0002.13,0001.61,0001.39
2023-12-30 15:24:00,SystemResetWarning,0830.4,4.99,000.00,020.2,019.4,000.0,028.4,021.6,9.3,0000.0,0002.04,0001.52,0001.30
2023-12-30 15:25:00,SystemResetWarning,0830.4,4.99,000.00,020.2,019.4,000.0,028.4,021.6,9.2,0000.0,0001.90,0001.38,0001.19
2023-12-30 15:26:00,SystemResetWarning,0830.4,5.01,000.00,020.2,019.5,000.0,028.4,021.7,9.1,0000.0,0001.73,0001.22,0001.04
2023-12-30 15:27:00,SystemResetWarning,0830.4,5.01,000.00,020.2,019.5,000.0,028.5,021.7,9.1,0000.0,0001.60,0001.08,0000.90
2023-12-30 15:28:00,SystemResetWarning,0830.3,4.99,000.00,020.2,019.5,000.0,028.5,021.7,9.1,0000.0,0001.41,0000.91,0000.76
2023-12-30 15:29:00,SystemResetWarning,0830.3,5.00,000.00,020.2,019.5,000.0,028.5,021.7,9.4,0000.0,0001.33,0000.87,0000.72
2023-12-30 15:30:00,SystemResetWarning,0830.4,4.99,000.00,020.2,019.5,000.0,028.5,021.7,9.3,0000.0,0001.32,0000.89,0000.75
2023-12-30 15:31:00,SystemResetWarning,0830.4,5.00,000.00,020.3,019.5,000.0,028.5,021.8,9.1,0000.0,0001.43,0000.95,0000.79
2023-12-30 15:32:00,SystemResetWarning,0830.4,5.00,000.00,020.3,019.6,000.0,028.5,021.8,9.2,0000.0,0001.56,0001.01,0000.84
2023-12-30 15:33:00,SystemResetWarning,0830.3,5.01,000.00,020.3,019.6,000.0,028.5,021.8,9.7,0000.0,0001.51,0001.04,0000.88
2023-12-30 15:34:00,SystemResetWarning,0830.3,5.01,000.00,020.3,019.6,000.0,028.5,021.8,10.3,0000.0,0001.57,0001.10,0000.93
2023-12-30 15:35:00,SystemResetWarning,0830.3,5.00,000.00,020.3,019.7,000.0,028.6,021.8,10.6,0000.0,0001.65,0001.12,0000.95
2023-12-30 15:36:00,SystemResetWarning,0830.3,5.00,000.00,020.3,019.7,000.0,028.6,021.9,10.0,0000.0,0001.73,0001.17,0001.00
2023-12-30 15:37:00,SystemResetWarning,0830.3,5.00,000.00,020.4,019.7,000.0,028.6,021.9,9.3,0000.0,0001.85,0001.25,0001.06
2023-12-30 15:38:00,SystemResetWarning,0830.3,4.99,000.00,020.4,019.7,000.0,028.6,021.9,9.3,0000.0,0002.04,0001.38,0001.15
2023-12-30 15:39:00,SystemResetWarning,0830.3,4.99,000.00,020.4,019.7,000.0,028.6,021.9,9.4,0000.0,0002.10,0001.50,0001.24
2023-12-30 15:40:00,SystemResetWarning,0830.3,4.99,000.00,020.4,019.7,000.0,028.6,021.9,9.5,0000.0,0002.32,0001.62,0001.33
2023-12-30 15:41:00,SystemResetWarning,0830.3,5.00,000.00,020.4,019.8,000.0,028.6,021.9,9.3,0000.0,0002.49,0001.74,0001.46
2023-12-30 15:42:00,SystemResetWarning,0830.3,5.01,000.00,020.5,019.8,000.0,028.6,022.0,9.4,0000.0,0002.66,0001.87,0001.57
2023-12-30 15:43:00,SystemResetWarning,0830.3,5.01,000.00,020.5,019.8,000.0,028.7,022.0,9.5,0000.0,0002.71,0001.95,0001.67
2023-12-30 15:44:00,SystemResetWarning,0830.3,5.00,000.00,020.5,019.8,000.0,028.7,022.0,9.8,0000.0,0002.89,0002.06,0001.74
2023-12-30 15:45:00,SystemResetWarning,0830.3,4.99,000.00,020.5,019.9,000.0,028.7,022.0,9.5,0000.0,0003.02,0002.14,0001.81
2023-12-30 15:46:00,SystemResetWarning,0830.3,4.99,000.00,020.5,019.9,000.0,028.7,022.0,9.5,0000.0,0003.18,0002.27,0001.91
2023-12-30 15:47:00,SystemResetWarning,0830.3,4.99,000.00,020.5,019.9,000.0,028.7,022.0,9.3,0000.0,0003.44,0002.47,0002.07
2023-12-30 15:48:00,SystemResetWarning,0830.3,5.00,000.00,020.5,019.9,000.0,028.7,022.1,9.4,0000.0,0003.57,0002.62,0002.22
2023-12-30 15:49:00,SystemResetWarning,0830.3,5.00,000.00,020.6,020.0,000.0,028.7,022.1,9.6,0000.0,0003.64,0002.71,0002.33
2023-12-30 15:50:00,SystemResetWarning,0830.3,5.00,000.00,020.6,020.0,000.0,028.8,022.1,9.5,0000.0,0003.67,0002.77,0002.42
2023-12-30 15:51:00,SystemResetWarning,0830.3,5.01,000.00,020.6,020.0,000.0,028.8,022.1,9.6,0000.0,0003.71,0002.84,0002.49
2023-12-30 15:52:00,SystemResetWarning,0830.3,5.01,000.00,020.6,020.0,000.0,028.8,022.1,9.8,0000.0,0004.29,0002.88,0002.53
2023-12-30 15:53:00,SystemResetWarning,0830.3,5.00,000.00,020.6,020.0,000.0,028.8,022.1,9.9,0000.0,0004.55,0002.91,0002.57
2023-12-30 15:54:00,SystemResetWarning,0830.3,5.00,000.00,020.7,020.0,000.0,028.8,022.2,9.9,0000.0,0004.69,0002.98,0002.61
2023-12-30 15:55:00,SystemResetWarning,0830.3,5.00,000.00,020.7,020.1,000.0,028.8,022.2,9.9,0000.0,0004.87,0003.09,0002.70
2023-12-30 15:56:00,SystemResetWarning,0830.3,5.00,000.00,020.7,020.1,000.0,028.9,022.2,10.0,0000.0,0005.12,0003.14,0002.78
2023-12-30 15:57:00,SystemResetWarning,0830.3,5.00,000.00,020.7,020.1,000.0,028.9,022.2,10.3,0000.0,0005.21,0003.17,0002.84
2023-12-30 15:58:00,SystemResetWarning,0830.4,5.00,000.00,020.7,020.1,000.0,028.9,022.2,11.1,0000.0,0005.28,0003.15,0002.81
2023-12-30 15:59:00,SystemResetWarning,0830.4,5.00,000.00,020.7,020.1,000.0,028.9,022.3,11.1,0000.0,0005.56,0003.15,0002.78
